Sant Hilari Sacalm-Els Cortals (La Selva)





Hora UTC 07:55
Temperatura 20.0 ºC
Humedad 65.0 %
Presión 1008.0 hPa
Pluja 0.0 mm
Velocidad viento 0.0 km/h
Dirección viento NE

Datos diarios 2024-06-18



Hora UTC (invierno +1h; verano +2h)
Temperatura (ºC) Humedad (%) Presión (hPa) Velocidad viento (km/h) Precipitación (mm)
Hora UTC Aire Humedad Presión Vel. Dir. Vel. Max Dir. Intent. máx 5 min.
00:05 16.2 81.0 1010.0 0.0 NW 0.0 0.0
00:10 16.2 82.0 1009.8 0.0 N 0.0 0.0
00:15 16.1 82.0 1009.8 0.0 NE 0.0 0.0
00:20 16.2 82.0 1009.7 0.0 ENE 0.0 0.0
00:25 16.1 82.0 1009.6 0.0 ENE 0.0 0.0
00:30 16.0 82.0 1009.6 0.0 NE 0.0 0.0
00:35 15.9 82.0 1009.5 0.0 NE 0.0 0.0
00:40 15.8 83.0 1009.4 0.0 NE 0.0 0.0
00:45 15.7 83.0 1009.3 0.0 NE 0.0 0.0
00:50 15.7 83.0 1009.3 0.0 NNE 0.0 0.0
00:55 15.7 83.0 1009.2 0.0 NNE 0.0 0.0
01:00 15.5 83.0 1009.2 0.0 NW 0.0 0.0
01:05 15.4 83.0 1009.1 0.0 NW 0.0 0.0
01:10 15.1 83.0 1009.0 0.0 WNW 0.0 0.0
01:15 15.2 83.0 1009.0 0.0 W 0.0 0.0
01:20 15.2 83.0 1008.9 0.0 W 0.0 0.0
01:25 15.1 82.0 1008.9 0.0 W 0.0 0.0
01:30 15.0 83.0 1008.9 0.0 W 0.0 0.0
01:35 15.0 83.0 1008.8 0.0 WSW 0.0 0.0
01:40 15.0 83.0 1008.9 0.0 WSW 0.0 0.0
01:45 15.0 83.0 1008.9 0.0 WSW 0.0 0.0
01:50 15.0 84.0 1008.8 0.0 WSW 0.0 0.0
01:55 14.9 83.0 1008.8 0.0 WSW 0.0 0.0
02:00 15.0 84.0 1008.6 0.0 W 0.0 0.0
02:05 15.0 83.0 1008.6 0.0 W 0.0 0.0
02:10 15.0 83.0 1008.4 0.0 W 0.0 0.0
02:15 15.0 83.0 1008.4 0.0 W 0.0 0.0
02:20 15.0 83.0 1008.3 0.0 W 0.0 0.0
02:25 14.9 83.0 1008.2 0.0 W 0.0 0.0
02:30 14.9 84.0 1008.2 0.0 W 0.0 0.0
02:35 14.9 84.0 1008.1 0.0 W 0.0 0.0
02:40 14.8 84.0 1008.1 0.0 W 0.0 0.0
02:45 14.9 85.0 1008.0 0.0 W 0.0 0.0
02:50 15.0 85.0 1008.0 0.0 W 0.0 0.0
02:55 15.2 85.0 1007.9 0.0 W 0.0 0.0
03:00 15.0 84.0 1008.0 0.0 WSW 0.0 0.0
03:05 15.0 84.0 1008.0 0.0 WSW 0.0 0.0
03:10 15.0 84.0 1008.0 0.0 WSW 0.0 0.0
03:15 15.0 84.0 1008.0 0.0 WSW 0.0 0.0
03:20 15.0 84.0 1008.0 0.0 WSW 0.0 0.0
03:25 14.8 85.0 1008.0 0.0 WSW 0.0 0.0
03:30 14.8 86.0 1008.0 0.0 WSW 0.0 0.0
03:35 15.0 86.0 1008.1 0.0 WSW 0.0 0.0
03:40 15.0 87.0 1008.0 0.0 WSW 0.0 0.0
03:45 14.9 87.0 1008.0 0.0 WSW 0.0 0.0
03:50 14.9 87.0 1008.0 0.0 WSW 0.0 0.0
03:55 14.9 87.0 1008.0 0.0 WSW 0.0 0.0
04:00 14.8 87.0 1008.0 0.0 WSW 0.0 0.0
04:05 15.0 88.0 1007.8 0.0 WSW 0.0 0.0
04:10 15.0 88.0 1007.9 0.0 WSW 0.0 0.0
04:15 15.0 87.0 1007.9 0.0 WSW 0.0 0.0
04:20 15.0 87.0 1007.8 0.0 WSW 0.0 0.0
04:25 15.0 87.0 1007.8 0.0 WSW 0.0 0.0
04:30 14.8 87.0 1007.7 0.0 WSW 0.0 0.0
04:35 14.8 88.0 1007.7 0.0 WSW 0.0 0.0
04:40 14.7 88.0 1007.7 0.0 WSW 0.0 0.0
04:45 14.6 88.0 1007.6 0.0 WSW 0.0 0.0
04:50 14.6 88.0 1007.7 0.0 WSW 0.0 0.0
04:55 14.7 88.0 1007.8 0.0 WSW 0.0 0.0
05:00 14.8 89.0 1007.9 0.0 WSW 0.0 0.0
05:05 15.0 89.0 1007.8 0.0 WSW 0.0 0.0
05:10 15.0 88.0 1007.8 0.0 WSW 0.0 0.0
05:15 15.2 88.0 1007.9 0.0 WSW 0.0 0.0
05:20 15.5 87.0 1007.8 0.0 WSW 0.0 0.0
05:25 15.8 87.0 1007.8 0.0 WSW 0.0 0.0
05:30 16.2 87.0 1007.9 0.0 WSW 0.0 0.0
05:35 16.7 84.0 1008.0 0.0 WSW 0.0 0.0
05:40 17.3 81.0 1007.9 0.0 ESE 0.0 0.0
05:45 17.6 78.0 1007.9 0.0 ESE 0.0 0.0
05:50 17.8 76.0 1007.9 0.0 ENE 0.0 0.0
05:55 18.1 75.0 1007.9 0.0 E 0.0 0.0
06:00 18.3 75.0 1008.0 0.0 ESE 0.0 0.0
06:05 18.4 74.0 1008.1 0.0 NE 0.0 0.0
06:10 18.6 73.0 1008.4 0.0 ENE 0.0 0.0
06:15 18.7 72.0 1008.4 0.0 SE 0.0 0.0
06:20 18.8 73.0 1008.5 0.0 E 0.0 0.0
06:25 18.9 71.0 1008.4 0.0 ENE 0.0 0.0
06:30 19.1 69.0 1008.4 0.0 E 0.0 0.0
06:35 19.2 69.0 1008.4 0.0 E 0.0 0.0
06:40 19.3 68.0 1008.4 0.0 SE 0.0 0.0
06:45 19.3 68.0 1008.5 0.0 SE 0.0 0.0
06:50 19.2 68.0 1008.5 0.0 E 0.0 0.0
06:55 19.2 69.0 1008.4 0.0 NE 0.0 0.0
07:00 19.2 69.0 1008.5 0.0 E 0.0 0.0
07:05 19.1 69.0 1008.5 0.0 E 0.0 0.0
07:10 19.2 72.0 1008.4 0.0 ESE 0.0 0.0
07:15 19.3 71.0 1008.6 0.0 ESE 0.0 0.0
07:20 19.3 70.0 1008.5 0.0 SSW 0.0 0.0
07:25 19.5 70.0 1008.4 0.0 E 0.0 0.0
07:30 19.6 69.0 1008.3 0.0 ESE 0.0 0.0
07:35 19.7 69.0 1008.3 0.0 E 0.0 0.0
07:40 19.7 69.0 1008.4 0.0 NE 0.0 0.0
07:45 19.9 68.0 1008.1 0.0 ENE 0.0 0.0
07:50 19.9 66.0 1008.2 0.0 NE 0.0 0.0
07:55 20.0 65.0 1008.0 0.0 NE 0.0 0.0
Máxima 20.0 89.0 1010.0 0.0 NE 0.0 0.0
Mínima 14.6 65.0 1007.6
Total 0.0